owner,sensor,date,latitude,longitude,vertical_datum,sea_water_temperature,qcFlag 
TABS,ioos:station:wmo:42044:1,2013-08-05T04:30:00Z,26.1914,-97.0507,-2.0,50.2,11144222 
TABS,ioos:station:wmo:42044:1,2013-08-06T18:30:00Z,26.1914,-97.0507,-2.0,50.2,11144222 
TABS,ioos:station:wmo:42044:1,2013-08-06T22:30:00Z,26.1914,-97.0507,-2.0,25.0,11111222 
TABS,ioos:station:wmo:42044:1,2013-08-06T23:00:00Z,26.1914,-97.0507,-2.0,50.2,11144222 
TABS,ioos:station:wmo:42044:1,2013-08-06T23:30:00Z,26.1914,-97.0507,-2.0,25.0,11111222 
TABS,ioos:station:wmo:42044:1,2013-08-07T00:00:00Z,26.1914,-97.0507,-2.0,25.0,11111222 
TABS,ioos:station:wmo:42044:1,2013-08-07T00:30:00Z,26.1914,-97.0507,-2.0,25.5,11111222 
TABS,ioos:station:wmo:42044:1,2013-08-07T01:00:00Z,26.1914,-97.0507,-2.0,25.0,11111222 
TABS,ioos:station:wmo:42044:1,2013-08-07T01:30:00Z,26.1914,-97.0507,-2.0,25.0,11111222 
TABS,ioos:station:wmo:42044:1,2013-08-07T02:00:00Z,26.1914,-97.0507,-2.0,25.0,11111222 
TABS,ioos:station:wmo:42044:1,2013-08-07T02:30:00Z,26.1914,-97.0507,-2.0,50.2,11144222 
TABS,ioos:station:wmo:42044:1,2013-08-07T03:00:00Z,26.1914,-97.0507,-2.0,50.2,11144222 
TABS,ioos:station:wmo:42044:1,2013-08-07T03:30:00Z,26.1914,-97.0507,-2.0,50.2,11144222 
TABS,ioos:station:wmo:42044:1,2013-08-07T04:00:00Z,26.1914,-97.0507,-2.0,50.2,11144222 
TABS,ioos:station:wmo:42044:1,2013-08-07T04:30:00Z,26.1914,-97.0507,-2.0,25.0,11111222 
TABS,ioos:station:wmo:42044:1,2013-08-07T05:00:00Z,26.1914,-97.0507,-2.0,50.2,11144222 
TABS,ioos:station:wmo:42044:1,2013-08-07T05:30:00Z,26.1914,-97.0507,-2.0,50.2,11144222 
TABS,ioos:station:wmo:42044:1,2013-08-07T06:00:00Z,26.1914,-97.0507,-2.0,50.2,11144222 
TABS,ioos:station:wmo:42044:1,2013-08-07T06:30:00Z,26.1914,-97.0507,-2.0,50.2,11144222 
TABS,ioos:station:wmo:42044:1,2013-08-07T07:00:00Z,26.1914,-97.0507,-2.0,50.2,11144222 
TABS,ioos:station:wmo:42044:1,2013-08-07T07:30:00Z,26.1914,-97.0507,-2.0,50.2,11144222 
TABS,ioos:station:wmo:42044:1,2013-08-07T08:00:00Z,26.1914,-97.0507,-2.0,50.2,11144222 
TABS,ioos:station:wmo:42044:1,2013-08-07T08:30:00Z,26.1914,-97.0507,-2.0,50.2,11144222 
TABS,ioos:station:wmo:42044:1,2013-08-07T09:00:00Z,26.1914,-97.0507,-2.0,50.2,11144222 
TABS,ioos:station:wmo:42044:1,2013-08-07T09:30:00Z,26.1914,-97.0507,-2.0,50.2,11144222 
TABS,ioos:station:wmo:42044:1,2013-08-07T10:00:00Z,26.1914,-97.0507,-2.0,50.2,11144222 
TABS,ioos:station:wmo:42044:1,2013-08-07T10:30:00Z,26.1914,-97.0507,-2.0,50.2,11144222 
TABS,ioos:station:wmo:42044:1,2013-08-07T11:00:00Z,26.1914,-97.0507,-2.0,50.2,11144222 
TABS,ioos:station:wmo:42044:1,2013-08-07T11:30:00Z,26.1914,-97.0507,-2.0,50.2,11144222 
TABS,ioos:station:wmo:42044:1,2013-08-07T12:00:00Z,26.1914,-97.0507,-2.0,50.2,11144222 
TABS,ioos:station:wmo:42044:1,2013-08-07T12:30:00Z,26.1914,-97.0507,-2.0,50.2,11144222 
TABS,ioos:station:wmo:42044:1,2013-08-07T13:00:00Z,26.1914,-97.0507,-2.0,50.2,11144222 
TABS,ioos:station:wmo:42044:1,2013-08-07T13:30:00Z,26.1914,-97.0507,-2.0,50.2,11144222 
TABS,ioos:station:wmo:42044:1,2013-08-07T14:00:00Z,26.1914,-97.0507,-2.0,50.2,11144222 
TABS,ioos:station:wmo:42044:1,2013-08-07T14:30:00Z,26.1914,-97.0507,-2.0,50.2,11144222 
TABS,ioos:station:wmo:42044:1,2013-08-07T15:00:00Z,26.1914,-97.0507,-2.0,50.2,11144222 
TABS,ioos:station:wmo:42044:1,2013-08-07T15:30:00Z,26.1914,-97.0507,-2.0,50.2,11144222 
TABS,ioos:station:wmo:42044:1,2013-08-07T16:00:00Z,26.1914,-97.0507,-2.0,50.2,11144222 
TABS,ioos:station:wmo:42044:1,2013-08-07T16:30:00Z,26.1914,-97.0507,-2.0,50.2,11144222 
TABS,ioos:station:wmo:42044:1,2013-08-07T17:00:00Z,26.1914,-97.0507,-2.0,50.2,11144222 
TABS,ioos:station:wmo:42044:1,2013-08-07T17:30:00Z,26.1914,-97.0507,-2.0,50.2,11144222 
TABS,ioos:station:wmo:42044:1,2013-08-07T18:00:00Z,26.1914,-97.0507,-2.0,50.2,11144222 
TABS,ioos:station:wmo:42044:1,2013-08-07T18:30:00Z,26.1914,-97.0507,-2.0,50.2,11144222 
TABS,ioos:station:wmo:42044:1,2013-08-07T19:00:00Z,26.1914,-97.0507,-2.0,50.2,11144222 
TABS,ioos:station:wmo:42044:1,2013-08-07T19:30:00Z,26.1914,-97.0507,-2.0,50.2,11144222 
TABS,ioos:station:wmo:42044:1,2013-08-07T20:00:00Z,26.1914,-97.0507,-2.0,50.2,11144222 
TABS,ioos:station:wmo:42044:1,2013-08-07T20:30:00Z,26.1914,-97.0507,-2.0,50.2,11144222 
TABS,ioos:station:wmo:42044:1,2013-08-07T21:00:00Z,26.1914,-97.0507,-2.0,50.2,11144222 
TABS,ioos:station:wmo:42044:1,2013-08-07T21:30:00Z,26.1914,-97.0507,-2.0,50.2,11144222 
TABS,ioos:station:wmo:42044:1,2013-08-07T22:00:00Z,26.1914,-97.0507,-2.0,50.2,11144222 
TABS,ioos:station:wmo:42044:1,2013-08-07T22:30:00Z,26.1914,-97.0507,-2.0,50.2,11144222 
TABS,ioos:station:wmo:42044:1,2013-08-07T23:00:00Z,26.1914,-97.0507,-2.0,50.2,11144222 
TABS,ioos:station:wmo:42044:1,2013-08-07T23:30:00Z,26.1914,-97.0507,-2.0,50.2,11144222 
TABS,ioos:station:wmo:42044:1,2013-08-16T13:00:00Z,26.1914,-97.0507,-2.0,27.8,11111222 
TABS,ioos:station:wmo:42044:1,2013-08-16T15:00:00Z,26.1914,-97.0507,-2.0,27.8,11111222 
TABS,ioos:station:wmo:42044:1,2013-08-16T23:00:00Z,26.1914,-97.0507,-2.0,28.0,11111222 
TABS,ioos:station:wmo:42044:1,2013-08-16T23:30:00Z,26.1914,-97.0507,-2.0,28.0,11111222 
TABS,ioos:station:wmo:42044:1,2013-08-17T00:00:00Z,26.1914,-97.0507,-2.0,28.0,11111222 
TABS,ioos:station:wmo:42044:1,2013-08-17T00:30:00Z,26.1914,-97.0507,-2.0,28.0,11111222 
TABS,ioos:station:wmo:42044:1,2013-08-17T01:00:00Z,26.1914,-97.0507,-2.0,28.0,11111222 
TABS,ioos:station:wmo:42044:1,2013-08-17T01:30:00Z,26.1914,-97.0507,-2.0,27.5,11111222 
TABS,ioos:station:wmo:42044:1,2013-08-17T02:00:00Z,26.1914,-97.0507,-2.0,27.8,11111222 
TABS,ioos:station:wmo:42044:1,2013-08-17T02:30:00Z,26.1914,-97.0507,-2.0,27.8,11111222 
TABS,ioos:station:wmo:42044:1,2013-08-17T03:00:00Z,26.1914,-97.0507,-2.0,27.8,11111222 
TABS,ioos:station:wmo:42044:1,2013-08-17T03:30:00Z,26.1914,-97.0507,-2.0,27.8,11111222 
TABS,ioos:station:wmo:42044:1,2013-08-17T04:00:00Z,26.1914,-97.0507,-2.0,27.8,11111222 
TABS,ioos:station:wmo:42044:1,2013-08-17T05:00:00Z,26.1914,-97.0507,-2.0,27.8,11111222 
TABS,ioos:station:wmo:42044:1,2013-08-17T05:30:00Z,26.1914,-97.0507,-2.0,28.0,11111222 
TABS,ioos:station:wmo:42044:1,2013-08-17T06:00:00Z,26.1914,-97.0507,-2.0,27.5,11111222 
TABS,ioos:station:wmo:42044:1,2013-08-17T06:30:00Z,26.1914,-97.0507,-2.0,27.8,11111222 
TABS,ioos:station:wmo:42044:1,2013-08-17T07:00:00Z,26.1914,-97.0507,-2.0,27.5,11111222 
TABS,ioos:station:wmo:42044:1,2013-08-17T07:30:00Z,26.1914,-97.0507,-2.0,27.5,11111222 
TABS,ioos:station:wmo:42044:1,2013-08-17T08:00:00Z,26.1914,-97.0507,-2.0,27.5,11111222 
TABS,ioos:station:wmo:42044:1,2013-08-17T08:30:00Z,26.1914,-97.0507,-2.0,27.5,11111222 
TABS,ioos:station:wmo:42044:1,2013-08-17T09:00:00Z,26.1914,-97.0507,-2.0,27.5,11111222 
TABS,ioos:station:wmo:42044:1,2013-08-17T09:30:00Z,26.1914,-97.0507,-2.0,27.5,11111222 
TABS,ioos:station:wmo:42044:1,2013-08-17T10:00:00Z,26.1914,-97.0507,-2.0,27.8,11111222 
TABS,ioos:station:wmo:42044:1,2013-08-17T10:30:00Z,26.1914,-97.0507,-2.0,27.8,11111222 
TABS,ioos:station:wmo:42044:1,2013-08-17T11:00:00Z,26.1914,-97.0507,-2.0,27.8,11111222 
TABS,ioos:station:wmo:42044:1,2013-08-17T11:30:00Z,26.1914,-97.0507,-2.0,27.8,11111222 
TABS,ioos:station:wmo:42044:1,2013-08-17T12:00:00Z,26.1914,-97.0507,-2.0,27.8,11111222 
TABS,ioos:station:wmo:42044:1,2013-08-17T12:30:00Z,26.1914,-97.0507,-2.0,27.8,11111222 
TABS,ioos:station:wmo:42044:1,2013-08-17T13:00:00Z,26.1914,-97.0507,-2.0,27.8,11111222 
TABS,ioos:station:wmo:42044:1,2013-08-17T13:30:00Z,26.1914,-97.0507,-2.0,27.5,11111222 
TABS,ioos:station:wmo:42044:1,2013-08-17T14:00:00Z,26.1914,-97.0507,-2.0,27.8,11111222 
TABS,ioos:station:wmo:42044:1,2013-08-17T14:30:00Z,26.1914,-97.0507,-2.0,27.8,11111222 
TABS,ioos:station:wmo:42044:1,2013-08-17T15:00:00Z,26.1914,-97.0507,-2.0,27.8,11111222 
TABS,ioos:station:wmo:42044:1,2013-08-17T15:30:00Z,26.1914,-97.0507,-2.0,27.8,11111222 
TABS,ioos:station:wmo:42044:1,2013-08-17T16:00:00Z,26.1914,-97.0507,-2.0,27.8,11111222 
TABS,ioos:station:wmo:42044:1,2013-08-17T16:30:00Z,26.1914,-97.0507,-2.0,27.8,11111222 
TABS,ioos:station:wmo:42044:1,2013-08-17T17:30:00Z,26.1914,-97.0507,-2.0,27.8,11111222 
TABS,ioos:station:wmo:42044:1,2013-08-17T18:00:00Z,26.1914,-97.0507,-2.0,27.8,11111222 
TABS,ioos:station:wmo:42044:1,2013-08-17T18:30:00Z,26.1914,-97.0507,-2.0,27.8,11111222 
TABS,ioos:station:wmo:42044:1,2013-08-17T19:00:00Z,26.1914,-97.0507,-2.0,27.8,11111222 
TABS,ioos:station:wmo:42044:1,2013-08-17T19:30:00Z,26.1914,-97.0507,-2.0,27.8,11111222 
TABS,ioos:station:wmo:42044:1,2013-08-17T20:00:00Z,26.1914,-97.0507,-2.0,27.8,11111222 
TABS,ioos:station:wmo:42044:1,2013-08-17T20:30:00Z,26.1914,-97.0507,-2.0,27.8,11111222 
TABS,ioos:station:wmo:42044:1,2013-08-17T21:00:00Z,26.1914,-97.0507,-2.0,28.0,11111222 
TABS,ioos:station:wmo:42044:1,2013-08-17T21:30:00Z,26.1914,-97.0507,-2.0,28.0,11111222 
TABS,ioos:station:wmo:42044:1,2013-08-17T22:00:00Z,26.1914,-97.0507,-2.0,29.0,11111222 
TABS,ioos:station:wmo:42044:1,2013-08-17T22:30:00Z,26.1914,-97.0507,-2.0,28.0,11111222 
TABS,ioos:station:wmo:42044:1,2013-08-17T23:00:00Z,26.1914,-97.0507,-2.0,28.0,11111222 
TABS,ioos:station:wmo:42044:1,2013-08-19T02:30:00Z,26.1914,-97.0507,-2.0,28.0,11111222 
TABS,ioos:station:wmo:42044:1,2013-08-20T14:00:00Z,26.1914,-97.0507,-2.0,27.5,11111222 
TABS,ioos:station:wmo:42044:1,2013-08-20T14:30:00Z,26.1914,-97.0507,-2.0,27.5,11111222 
TABS,ioos:station:wmo:42044:1,2013-08-20T15:00:00Z,26.1914,-97.0507,-2.0,27.5,11111222 
TABS,ioos:station:wmo:42044:1,2013-08-20T15:30:00Z,26.1914,-97.0507,-2.0,27.5,11111222 
TABS,ioos:station:wmo:42044:1,2013-08-20T16:00:00Z,26.1914,-97.0507,-2.0,27.5,11111222 
TABS,ioos:station:wmo:42044:1,2013-08-20T16:30:00Z,26.1914,-97.0507,-2.0,27.5,11111222 
TABS,ioos:station:wmo:42044:1,2013-08-20T17:00:00Z,26.1914,-97.0507,-2.0,27.8,11111222 
TABS,ioos:station:wmo:42044:1,2013-08-20T17:30:00Z,26.1914,-97.0507,-2.0,27.8,11111222 
TABS,ioos:station:wmo:42044:1,2013-08-20T18:00:00Z,26.1914,-97.0507,-2.0,27.8,11111222 
TABS,ioos:station:wmo:42044:1,2013-08-20T18:30:00Z,26.1914,-97.0507,-2.0,27.8,11111222 
TABS,ioos:station:wmo:42044:1,2013-08-20T19:00:00Z,26.1914,-97.0507,-2.0,27.8,11111222 
TABS,ioos:station:wmo:42044:1,2013-08-20T19:30:00Z,26.1914,-97.0507,-2.0,27.8,11111222 
TABS,ioos:station:wmo:42044:1,2013-08-20T20:00:00Z,26.1914,-97.0507,-2.0,27.8,11111222 
TABS,ioos:station:wmo:42044:1,2013-08-20T20:30:00Z,26.1914,-97.0507,-2.0,27.8,11111222 
TABS,ioos:station:wmo:42044:1,2013-08-20T21:00:00Z,26.1914,-97.0507,-2.0,27.8,11111222 
TABS,ioos:station:wmo:42044:1,2013-08-20T21:30:00Z,26.1914,-97.0507,-2.0,28.0,11111222 
TABS,ioos:station:wmo:42044:1,2013-08-20T22:00:00Z,26.1914,-97.0507,-2.0,28.2,11111222 
TABS,ioos:station:wmo:42044:1,2013-08-20T22:30:00Z,26.1914,-97.0507,-2.0,28.2,11111222 
TABS,ioos:station:wmo:42044:1,2013-08-20T23:00:00Z,26.1914,-97.0507,-2.0,29.2,11111222 
TABS,ioos:station:wmo:42044:1,2013-08-20T23:30:00Z,26.1914,-97.0507,-2.0,28.2,11111222 
TABS,ioos:station:wmo:42044:1,2013-08-21T00:00:00Z,26.1914,-97.0507,-2.0,28.2,11111222 
TABS,ioos:station:wmo:42044:1,2013-08-21T00:30:00Z,26.1914,-97.0507,-2.0,28.2,11111222 
TABS,ioos:station:wmo:42044:1,2013-08-21T01:00:00Z,26.1914,-97.0507,-2.0,28.2,11111222 
TABS,ioos:station:wmo:42044:1,2013-08-21T01:30:00Z,26.1914,-97.0507,-2.0,28.2,11111222 
TABS,ioos:station:wmo:42044:1,2013-08-21T02:00:00Z,26.1914,-97.0507,-2.0,28.0,11111222 
TABS,ioos:station:wmo:42044:1,2013-08-21T02:30:00Z,26.1914,-97.0507,-2.0,28.0,11111222 
TABS,ioos:station:wmo:42044:1,2013-08-21T03:00:00Z,26.1914,-97.0507,-2.0,28.0,11111222 
TABS,ioos:station:wmo:42044:1,2013-08-21T03:30:00Z,26.1914,-97.0507,-2.0,28.0,11111222 
TABS,ioos:station:wmo:42044:1,2013-08-21T04:00:00Z,26.1914,-97.0507,-2.0,28.0,11111222 
TABS,ioos:station:wmo:42044:1,2013-08-21T05:30:00Z,26.1914,-97.0507,-2.0,28.2,11111222 
TABS,ioos:station:wmo:42044:1,2013-08-21T06:00:00Z,26.1914,-97.0507,-2.0,28.0,11111222 
TABS,ioos:station:wmo:42044:1,2013-08-21T06:30:00Z,26.1914,-97.0507,-2.0,28.0,11111222 
TABS,ioos:station:wmo:42044:1,2013-08-21T07:00:00Z,26.1914,-97.0507,-2.0,28.0,11111222 
TABS,ioos:station:wmo:42044:1,2013-08-21T07:30:00Z,26.1914,-97.0507,-2.0,28.0,11111222 
TABS,ioos:station:wmo:42044:1,2013-08-21T08:00:00Z,26.1914,-97.0507,-2.0,27.8,11111222 
TABS,ioos:station:wmo:42044:1,2013-08-21T08:30:00Z,26.1914,-97.0507,-2.0,27.8,11111222 
TABS,ioos:station:wmo:42044:1,2013-08-21T09:00:00Z,26.1914,-97.0507,-2.0,27.8,11111222 
TABS,ioos:station:wmo:42044:1,2013-08-21T09:30:00Z,26.1914,-97.0507,-2.0,27.8,11111222 
TABS,ioos:station:wmo:42044:1,2013-08-21T10:00:00Z,26.1914,-97.0507,-2.0,27.8,11111222 
TABS,ioos:station:wmo:42044:1,2013-08-21T10:30:00Z,26.1914,-97.0507,-2.0,27.8,11111222 
TABS,ioos:station:wmo:42044:1,2013-08-21T11:00:00Z,26.1914,-97.0507,-2.0,27.8,11111222 
TABS,ioos:station:wmo:42044:1,2013-08-21T11:30:00Z,26.1914,-97.0507,-2.0,27.8,11111222 
TABS,ioos:station:wmo:42044:1,2013-08-21T12:00:00Z,26.1914,-97.0507,-2.0,27.8,11111222 
TABS,ioos:station:wmo:42044:1,2013-08-21T12:30:00Z,26.1914,-97.0507,-2.0,27.8,11111222 
TABS,ioos:station:wmo:42044:1,2013-08-21T13:00:00Z,26.1914,-97.0507,-2.0,27.8,11111222 
TABS,ioos:station:wmo:42044:1,2013-08-21T13:30:00Z,26.1914,-97.0507,-2.0,27.8,11111222 
TABS,ioos:station:wmo:42044:1,2013-08-21T14:00:00Z,26.1914,-97.0507,-2.0,27.8,11111222 
TABS,ioos:station:wmo:42044:1,2013-08-21T14:30:00Z,26.1914,-97.0507,-2.0,27.8,11111222 
TABS,ioos:station:wmo:42044:1,2013-08-21T15:00:00Z,26.1914,-97.0507,-2.0,27.8,11111222 
TABS,ioos:station:wmo:42044:1,2013-08-21T15:30:00Z,26.1914,-97.0507,-2.0,27.8,11111222 
TABS,ioos:station:wmo:42044:1,2013-08-21T16:00:00Z,26.1914,-97.0507,-2.0,27.8,11111222 
TABS,ioos:station:wmo:42044:1,2013-08-21T16:30:00Z,26.1914,-97.0507,-2.0,27.8,11111222 
TABS,ioos:station:wmo:42044:1,2013-08-21T17:00:00Z,26.1914,-97.0507,-2.0,27.8,11111222 
TABS,ioos:station:wmo:42044:1,2013-08-21T17:30:00Z,26.1914,-97.0507,-2.0,28.0,11111222 
TABS,ioos:station:wmo:42044:1,2013-08-21T18:00:00Z,26.1914,-97.0507,-2.0,28.0,11111222 
TABS,ioos:station:wmo:42044:1,2013-08-21T18:30:00Z,26.1914,-97.0507,-2.0,28.0,11111222 
TABS,ioos:station:wmo:42044:1,2013-08-21T19:00:00Z,26.1914,-97.0507,-2.0,28.0,11111222 
TABS,ioos:station:wmo:42044:1,2013-08-21T19:30:00Z,26.1914,-97.0507,-2.0,28.0,11111222 
TABS,ioos:station:wmo:42044:1,2013-08-21T20:00:00Z,26.1914,-97.0507,-2.0,29.0,11111222 
TABS,ioos:station:wmo:42044:1,2013-08-21T20:30:00Z,26.1914,-97.0507,-2.0,28.2,11111222 
TABS,ioos:station:wmo:42044:1,2013-08-21T21:00:00Z,26.1914,-97.0507,-2.0,28.2,11111222 
TABS,ioos:station:wmo:42044:1,2013-08-21T21:30:00Z,26.1914,-97.0507,-2.0,28.2,11111222 
TABS,ioos:station:wmo:42044:1,2013-08-21T22:00:00Z,26.1914,-97.0507,-2.0,28.2,11111222 
TABS,ioos:station:wmo:42044:1,2013-08-21T22:30:00Z,26.1914,-97.0507,-2.0,29.2,11111222 
TABS,ioos:station:wmo:42044:1,2013-08-21T23:00:00Z,26.1914,-97.0507,-2.0,28.2,11111222 
TABS,ioos:station:wmo:42044:1,2013-08-21T23:30:00Z,26.1914,-97.0507,-2.0,28.0,11111222 
TABS,ioos:station:wmo:42044:1,2013-08-22T00:00:00Z,26.1914,-97.0507,-2.0,28.0,11111222 
TABS,ioos:station:wmo:42044:1,2013-08-22T00:30:00Z,26.1914,-97.0507,-2.0,28.0,11111222 
TABS,ioos:station:wmo:42044:1,2013-08-22T01:00:00Z,26.1914,-97.0507,-2.0,28.0,11111222 
TABS,ioos:station:wmo:42044:1,2013-08-22T01:30:00Z,26.1914,-97.0507,-2.0,28.0,11111222 
TABS,ioos:station:wmo:42044:1,2013-08-22T02:00:00Z,26.1914,-97.0507,-2.0,28.0,11111222 
TABS,ioos:station:wmo:42044:1,2013-08-22T02:30:00Z,26.1914,-97.0507,-2.0,28.0,11111222 
TABS,ioos:station:wmo:42044:1,2013-08-22T03:00:00Z,26.1914,-97.0507,-2.0,28.0,11111222 
TABS,ioos:station:wmo:42044:1,2013-08-22T03:30:00Z,26.1914,-97.0507,-2.0,28.0,11111222 
TABS,ioos:station:wmo:42044:1,2013-08-22T04:00:00Z,26.1914,-97.0507,-2.0,28.0,11111222 
TABS,ioos:station:wmo:42044:1,2013-08-22T05:30:00Z,26.1914,-97.0507,-2.0,28.0,11111222 
TABS,ioos:station:wmo:42044:1,2013-08-22T06:00:00Z,26.1914,-97.0507,-2.0,28.0,11111222 
TABS,ioos:station:wmo:42044:1,2013-08-22T06:30:00Z,26.1914,-97.0507,-2.0,27.8,11111222 
TABS,ioos:station:wmo:42044:1,2013-08-22T07:00:00Z,26.1914,-97.0507,-2.0,27.8,11111222 
TABS,ioos:station:wmo:42044:1,2013-08-22T07:30:00Z,26.1914,-97.0507,-2.0,28.0,11111222 
TABS,ioos:station:wmo:42044:1,2013-08-22T08:00:00Z,26.1914,-97.0507,-2.0,28.0,11111222 
TABS,ioos:station:wmo:42044:1,2013-08-22T08:30:00Z,26.1914,-97.0507,-2.0,28.0,11111222 
TABS,ioos:station:wmo:42044:1,2013-08-22T09:00:00Z,26.1914,-97.0507,-2.0,28.0,11111222 
TABS,ioos:station:wmo:42044:1,2013-08-22T09:30:00Z,26.1914,-97.0507,-2.0,28.0,11111222 
TABS,ioos:station:wmo:42044:1,2013-08-22T10:00:00Z,26.1914,-97.0507,-2.0,28.0,11111222 
TABS,ioos:station:wmo:42044:1,2013-08-22T10:30:00Z,26.1914,-97.0507,-2.0,27.8,11111222 
TABS,ioos:station:wmo:42044:1,2013-08-22T11:00:00Z,26.1914,-97.0507,-2.0,27.8,11111222 
TABS,ioos:station:wmo:42044:1,2013-08-22T11:30:00Z,26.1914,-97.0507,-2.0,27.8,11111222 
TABS,ioos:station:wmo:42044:1,2013-08-22T12:00:00Z,26.1914,-97.0507,-2.0,27.8,11111222 
TABS,ioos:station:wmo:42044:1,2013-08-22T12:30:00Z,26.1914,-97.0507,-2.0,27.8,11111222 
TABS,ioos:station:wmo:42044:1,2013-08-22T13:00:00Z,26.1914,-97.0507,-2.0,27.8,11111222 
TABS,ioos:station:wmo:42044:1,2013-08-22T13:30:00Z,26.1914,-97.0507,-2.0,27.8,11111222 
TABS,ioos:station:wmo:42044:1,2013-08-22T14:00:00Z,26.1914,-97.0507,-2.0,27.8,11111222 
TABS,ioos:station:wmo:42044:1,2013-08-22T14:30:00Z,26.1914,-97.0507,-2.0,27.8,11111222 
TABS,ioos:station:wmo:42044:1,2013-08-22T15:00:00Z,26.1914,-97.0507,-2.0,27.8,11111222 
TABS,ioos:station:wmo:42044:1,2013-08-22T15:30:00Z,26.1914,-97.0507,-2.0,27.8,11111222 
TABS,ioos:station:wmo:42044:1,2013-08-22T16:00:00Z,26.1914,-97.0507,-2.0,27.8,11111222 
TABS,ioos:station:wmo:42044:1,2013-08-22T16:30:00Z,26.1914,-97.0507,-2.0,27.8,11111222 
TABS,ioos:station:wmo:42044:1,2013-08-22T17:00:00Z,26.1914,-97.0507,-2.0,27.8,11111222 
TABS,ioos:station:wmo:42044:1,2013-08-22T17:30:00Z,26.1914,-97.0507,-2.0,27.8,11111222 
TABS,ioos:station:wmo:42044:1,2013-08-22T18:00:00Z,26.1914,-97.0507,-2.0,28.0,11111222 
TABS,ioos:station:wmo:42044:1,2013-08-22T18:30:00Z,26.1914,-97.0507,-2.0,28.0,11111222 
TABS,ioos:station:wmo:42044:1,2013-08-22T19:00:00Z,26.1914,-97.0507,-2.0,28.0,11111222 
TABS,ioos:station:wmo:42044:1,2013-08-22T19:30:00Z,26.1914,-97.0507,-2.0,28.0,11111222 
TABS,ioos:station:wmo:42044:1,2013-08-22T20:00:00Z,26.1914,-97.0507,-2.0,28.0,11111222 
TABS,ioos:station:wmo:42044:1,2013-08-22T20:30:00Z,26.1914,-97.0507,-2.0,28.0,11111222 
TABS,ioos:station:wmo:42044:1,2013-08-22T21:00:00Z,26.1914,-97.0507,-2.0,28.5,11111222 
TABS,ioos:station:wmo:42044:1,2013-08-22T21:30:00Z,26.1914,-97.0507,-2.0,28.0,11111222 
TABS,ioos:station:wmo:42044:1,2013-08-22T22:00:00Z,26.1914,-97.0507,-2.0,28.0,11111222 
TABS,ioos:station:wmo:42044:1,2013-08-22T22:30:00Z,26.1914,-97.0507,-2.0,28.5,11111222 
TABS,ioos:station:wmo:42044:1,2013-08-22T23:00:00Z,26.1914,-97.0507,-2.0,28.5,11111222 
TABS,ioos:station:wmo:42044:1,2013-08-22T23:30:00Z,26.1914,-97.0507,-2.0,28.0,11111222 
TABS,ioos:station:wmo:42044:1,2013-08-23T00:00:00Z,26.1914,-97.0507,-2.0,28.0,11111222 
TABS,ioos:station:wmo:42044:1,2013-08-23T00:30:00Z,26.1914,-97.0507,-2.0,28.0,11111222 
TABS,ioos:station:wmo:42044:1,2013-08-23T01:00:00Z,26.1914,-97.0507,-2.0,28.0,11111222 
TABS,ioos:station:wmo:42044:1,2013-08-23T01:30:00Z,26.1914,-97.0507,-2.0,27.8,11111222 
TABS,ioos:station:wmo:42044:1,2013-08-23T02:00:00Z,26.1914,-97.0507,-2.0,27.8,11111222 
TABS,ioos:station:wmo:42044:1,2013-08-23T02:30:00Z,26.1914,-97.0507,-2.0,27.8,11111222 
TABS,ioos:station:wmo:42044:1,2013-08-23T03:00:00Z,26.1914,-97.0507,-2.0,27.8,11111222 
TABS,ioos:station:wmo:42044:1,2013-08-23T03:30:00Z,26.1914,-97.0507,-2.0,27.8,11111222 
TABS,ioos:station:wmo:42044:1,2013-08-23T04:00:00Z,26.1914,-97.0507,-2.0,27.8,11111222 
TABS,ioos:station:wmo:42044:1,2013-08-23T04:30:00Z,26.1914,-97.0507,-2.0,27.8,11111222 
TABS,ioos:station:wmo:42044:1,2013-08-23T05:00:00Z,26.1914,-97.0507,-2.0,27.8,11111222 
TABS,ioos:station:wmo:42044:1,2013-08-23T05:30:00Z,26.1914,-97.0507,-2.0,27.8,11111222 
TABS,ioos:station:wmo:42044:1,2013-08-23T06:00:00Z,26.1914,-97.0507,-2.0,27.8,11111222 
TABS,ioos:station:wmo:42044:1,2013-08-23T06:30:00Z,26.1914,-97.0507,-2.0,27.8,11111222 
TABS,ioos:station:wmo:42044:1,2013-08-23T07:00:00Z,26.1914,-97.0507,-2.0,27.8,11111222 
TABS,ioos:station:wmo:42044:1,2013-08-23T07:30:00Z,26.1914,-97.0507,-2.0,29.5,11111222 
TABS,ioos:station:wmo:42044:1,2013-08-23T08:00:00Z,26.1914,-97.0507,-2.0,27.8,11111222 
TABS,ioos:station:wmo:42044:1,2013-08-23T08:30:00Z,26.1914,-97.0507,-2.0,27.8,11111222 
TABS,ioos:station:wmo:42044:1,2013-08-23T09:00:00Z,26.1914,-97.0507,-2.0,27.8,11111222 
TABS,ioos:station:wmo:42044:1,2013-08-23T09:30:00Z,26.1914,-97.0507,-2.0,27.8,11111222 
TABS,ioos:station:wmo:42044:1,2013-08-23T10:00:00Z,26.1914,-97.0507,-2.0,27.8,11111222 
TABS,ioos:station:wmo:42044:1,2013-08-23T10:30:00Z,26.1914,-97.0507,-2.0,27.8,11111222 
TABS,ioos:station:wmo:42044:1,2013-08-23T11:00:00Z,26.1914,-97.0507,-2.0,27.8,11111222 
TABS,ioos:station:wmo:42044:1,2013-08-23T11:30:00Z,26.1914,-97.0507,-2.0,27.8,11111222 
TABS,ioos:station:wmo:42044:1,2013-08-23T12:00:00Z,26.1914,-97.0507,-2.0,27.8,11111222 
TABS,ioos:station:wmo:42044:1,2013-08-23T12:30:00Z,26.1914,-97.0507,-2.0,27.8,11111222 
TABS,ioos:station:wmo:42044:1,2013-08-23T13:00:00Z,26.1914,-97.0507,-2.0,27.8,11111222 
TABS,ioos:station:wmo:42044:1,2013-08-23T13:30:00Z,26.1914,-97.0507,-2.0,27.8,11111222 
TABS,ioos:station:wmo:42044:1,2013-08-23T14:00:00Z,26.1914,-97.0507,-2.0,27.8,11111222 
TABS,ioos:station:wmo:42044:1,2013-08-23T14:30:00Z,26.1914,-97.0507,-2.0,27.8,11111222 
TABS,ioos:station:wmo:42044:1,2013-08-23T15:00:00Z,26.1914,-97.0507,-2.0,27.8,11111222 
TABS,ioos:station:wmo:42044:1,2013-08-23T15:30:00Z,26.1914,-97.0507,-2.0,27.8,11111222 
TABS,ioos:station:wmo:42044:1,2013-08-23T16:00:00Z,26.1914,-97.0507,-2.0,28.0,11111222 
TABS,ioos:station:wmo:42044:1,2013-08-23T16:30:00Z,26.1914,-97.0507,-2.0,28.0,11111222 
TABS,ioos:station:wmo:42044:1,2013-08-23T17:00:00Z,26.1914,-97.0507,-2.0,28.2,11111222 
TABS,ioos:station:wmo:42044:1,2013-08-23T17:30:00Z,26.1914,-97.0507,-2.0,28.5,11111222 
TABS,ioos:station:wmo:42044:1,2013-08-23T18:30:00Z,26.1914,-97.0507,-2.0,28.2,11111222 
TABS,ioos:station:wmo:42044:1,2013-08-23T19:00:00Z,26.1914,-97.0507,-2.0,28.2,11111222 
TABS,ioos:station:wmo:42044:1,2013-08-23T19:30:00Z,26.1914,-97.0507,-2.0,28.2,11111222 
TABS,ioos:station:wmo:42044:1,2013-08-23T20:00:00Z,26.1914,-97.0507,-2.0,28.2,11111222 
TABS,ioos:station:wmo:42044:1,2013-08-23T20:30:00Z,26.1914,-97.0507,-2.0,28.2,11111222 
TABS,ioos:station:wmo:42044:1,2013-08-23T21:00:00Z,26.1914,-97.0507,-2.0,28.5,11111222 
TABS,ioos:station:wmo:42044:1,2013-08-23T21:30:00Z,26.1914,-97.0507,-2.0,28.5,11111222 
TABS,ioos:station:wmo:42044:1,2013-08-23T22:00:00Z,26.1914,-97.0507,-2.0,28.5,11111222 
TABS,ioos:station:wmo:42044:1,2013-08-23T22:30:00Z,26.1914,-97.0507,-2.0,28.8,11111222 
TABS,ioos:station:wmo:42044:1,2013-08-23T23:00:00Z,26.1914,-97.0507,-2.0,28.5,11111222 
TABS,ioos:station:wmo:42044:1,2013-08-23T23:30:00Z,26.1914,-97.0507,-2.0,28.5,11111222 
TABS,ioos:station:wmo:42044:1,2013-08-24T00:00:00Z,26.1914,-97.0507,-2.0,28.8,11111222 
TABS,ioos:station:wmo:42044:1,2013-08-24T00:30:00Z,26.1914,-97.0507,-2.0,28.2,11111222 
TABS,ioos:station:wmo:42044:1,2013-08-24T01:00:00Z,26.1914,-97.0507,-2.0,28.2,11111222 
TABS,ioos:station:wmo:42044:1,2013-08-24T01:30:00Z,26.1914,-97.0507,-2.0,28.2,11111222 
TABS,ioos:station:wmo:42044:1,2013-08-24T02:00:00Z,26.1914,-97.0507,-2.0,28.2,11111222 
TABS,ioos:station:wmo:42044:1,2013-08-24T02:30:00Z,26.1914,-97.0507,-2.0,28.2,11111222 
TABS,ioos:station:wmo:42044:1,2013-08-24T03:00:00Z,26.1914,-97.0507,-2.0,28.2,11111222 
TABS,ioos:station:wmo:42044:1,2013-08-24T03:30:00Z,26.1914,-97.0507,-2.0,28.2,11111222 
TABS,ioos:station:wmo:42044:1,2013-08-24T04:00:00Z,26.1914,-97.0507,-2.0,28.2,11111222 